GORIZONT 24 [-]

Last updated on Tue Jun 27 2023 00:03:00 GMT+0000 (Coordinated Universal Time)

1 21759U 91074A 23177.07790247 -.00000047 00000+0 00000+0 0 9991 2 21759 14.7250 351.3066 0018018 228.3635 299.9586 0.98443333114333

Satellite not in orbit

GORIZONT 24 [-]